Location: Cheching
(60.0667°N, 164.2167°W)
Time: 13:40:19
(UTC+00:00)

STRAND 1 - Pass Details

Date: 20 January 2021
Orbit: 768 x 780 km, 98.4° (Epoch: 04 March)

Event Time Altitude Azimuth Distance (km) Brightness Sun altitude
Rises 16:20:07 0° 144° (SE) 3,239 ? -23.2°
Reaches altitude 10° 16:22:27 10° 141° (SE) 2,317 ? -22.9°
Maximum altitude 16:27:26 57° 64° (ENE) 913 ? -22.2°
Drops below altitude 10° 16:32:28 10° 347° (NNW) 2,338 ? -21.6°
Enters shadow 16:33:36 - 345° (NNW) 2,783 ? -21.5°
